Moses Lake, WA
on Wednesday, November 7, 2012

Wednesday
Previous Day Next Day
Daily Summary
 ActualAverageRecord
Temperature
Mean Temperature °F 41°F  
Max Temperature 56°F 51°F 63°F (2006)
Min Temperature 31°F 31°F 14°F (2003)
Degree Days
Heating Degree Days 21 24  
Month to date heating degree days 109 161  
Since 1 July heating degree days 634 798  
Cooling Degree Days 0 0  
Month to date cooling degree days 0 0  
Year to date cooling degree days 719 615  
Moisture
Dew Point 28°F   
Average Humidity 57    
Maximum Humidity 83    
Minimum Humidity 30    
Precipitation
Precipitation 0.00 in 0.04 in 0.46 in (1980)
Month to date precipitation 0.08 0.26  
Year to date precipitation 6.68 6.73  
Wind
Wind Speed 8 mph   
Max Wind Speed 23 mph   
Max Gust Speed 28 mph   
Visibility 10 miles   
Events     

Key: T is trace of precipitation, MM is missing value
Source: NWS Daily Summary
Time(PST)TemperatureDew PointHumidity Pressure Visibility Wind DirectionWind SpeedGust SpeedPrecipitationEvents Conditions
12:52 AM 46.0°F 41.0°F 83% 29.91 in 9.0 miles Calm Calm - N/A   Overcast
1:52 AM 45.0°F 39.9°F 82% 29.94 in 10.0 miles WNW 6.9 mph - N/A   Mostly Cloudy
2:52 AM 48.2°F 32.0°F 54% 29.93 in 10.0 miles WSW 4.6 mph - N/A   Clear
3:52 AM 45.0°F 30.0°F 56% 29.95 in 10.0 miles WSW 9.2 mph - N/A   Clear
4:52 AM 46.9°F 30.0°F 52% 29.96 in 10.0 miles West 20.7 mph - N/A   Clear
5:52 AM 46.0°F 30.9°F 56% 29.99 in 10.0 miles West 16.1 mph - N/A   Clear
6:52 AM 46.0°F 28.9°F 51% 30.00 in 10.0 miles WSW 16.1 mph - N/A   Clear
7:52 AM 46.0°F 28.0°F 50% 30.03 in 10.0 miles West 11.5 mph - N/A   Clear
8:52 AM 48.9°F 27.0°F 43% 30.03 in 10.0 miles SW 9.2 mph - N/A   Clear
9:52 AM 53.1°F 26.1°F 35% 30.04 in 10.0 miles West 13.8 mph - N/A   Clear
10:52 AM 55.0°F 25.0°F 31% 30.04 in 10.0 miles West 15.0 mph - N/A   Clear
11:52 AM 55.9°F 24.1°F 29% 30.04 in 10.0 miles WSW 13.8 mph - N/A   Clear
12:52 PM 55.9°F 24.1°F 29% 30.04 in 10.0 miles WSW 11.5 mph - N/A   Clear
1:52 PM 55.9°F 25.0°F 30% 30.04 in 10.0 miles West 8.1 mph - N/A   Partly Cloudy
2:52 PM 55.0°F 24.1°F 30% 30.03 in 10.0 miles WSW 5.8 mph - N/A   Clear
3:52 PM 53.1°F 24.1°F 32% 30.04 in 10.0 miles West 6.9 mph - N/A   Clear
4:52 PM 50.0°F 26.1°F 39% 30.04 in 10.0 miles SW 3.5 mph - N/A   Clear
5:52 PM 44.1°F 27.0°F 51% 30.04 in 10.0 miles West 3.5 mph - N/A   Clear
6:52 PM 41.0°F 27.0°F 57% 30.03 in 10.0 miles SSE 6.9 mph - N/A   Clear
7:52 PM 37.0°F 26.1°F 65% 30.01 in 10.0 miles Calm Calm - N/A   Clear
8:52 PM 33.1°F 26.1°F 75% 30.01 in 10.0 miles North 4.6 mph - N/A   Clear
9:52 PM 30.9°F 25.0°F 79% 30.00 in 10.0 miles Calm Calm - N/A   Partly Cloudy
10:52 PM 34.0°F 27.0°F 75% 29.98 in 10.0 miles East 3.5 mph - N/A   Mostly Cloudy
11:52 PM 30.9°F 26.1°F 82% 29.96 in 10.0 miles North 6.9 mph - N/A   Clear
Moon Phase
Nov. 07 Nov. 13 Nov. 20 Nov. 28 Dec. 06
Sunrise:06:50 AM (PST) Moon Rise:No Moon Rise/
Sunset:04:31 PM (PST) Moon Set:01:07 PM (PST)11/7

Copyright © 2014 The Weather Underground, Inc.